User: anonymous
Location: Clinton NY
(43.0598°N, 75.3602°W)
Time: 06:26:25
(UTC-04:00)
Language:

Iridium 11 - Orbit

View from above orbital plane
View from above orbital plane
View from above satellite
View from above satellite

Ground track
Ground track

The orbit data is extracted from the following two-line orbital elements,

1 25578U 98074B   14112.32771797  .00000612  00000-0  21159-3 0  8435
2 25578 086.4003 017.0942 0002331 098.3692 040.6560 14.34214847812302
Epoch (UTC): 22 April 2014 07:51:54
Eccentricity: 0.0002331
inclination: 86.4003°
perigee height: 776 km
apogee height: 779 km
right ascension of ascending node: 17.0942°
argument of perigee: 98.3692°
revolutions per day: 14.34214847
mean anomaly at epoch: 40.6560°
orbit number at epoch: 81230

The dashed part of the orbit path shows where the satellite is in the earth's shadow,  

DLR